Retour au catalogue

NVS-02

ActifNavigationGTO
NORAD 62850·PAYLOAD·🇮🇳 India

Lancé Jan 29, 2025 depuis Satish Dhawan Space Centre

Loading…

TLE

PériméSource: Space-Track

Époque: Sep 14, 2026, 01:31 UTC

1 62850U 25020A   26257.06329222  .00000391  00000-0  14357-3 0  9994
2 62850  20.3694 226.6675 7362731 207.9316  76.7728  2.18076891 12921

Suivez NVS-02 en temps réel avec AllMySat

Download on the App Store